EW3511 Weather Reports


Display with metric or nautical units.
time (UTC)temp
F
wind
direction
speed
MPH
gust
MPH
rain 1hr
in
rain 24hr
in
rain mn
in
humidity
%
barometer
mb
20260508013540 48 0.0 0.0 0.00 0.01 0.00 99 1014.7
20260508012540 47 0.0 0.0 0.00 0.01 0.00 99 1014.6
20260508011541 47 0.0 0.0 0.00 0.01 0.00 99 1014.6
20260508010603 47 0.0 0.0 0.00 0.01 0.00 99 1014.8
20260508005541 47 0.0 0.0 0.00 0.01 0.00 99 1014.8
20260508004542 47 74 0.0 1.0 0.00 0.01 0.00 99 1015.0
20260508003542 47 0.0 0.0 0.00 0.01 0.00 99 1015.0
20260508002543 47 0.0 0.0 0.00 0.02 0.00 99 1015.0
20260508001543 48 124 0.0 2.0 0.00 0.02 0.00 99 1015.0
20260508000543 48 111 0.0 1.0 0.00 0.02 0.00 99 1015.2
20260507235544 49 0.0 0.0 0.00 0.02 0.00 99 1015.1
20260507234604 49 0.0 0.0 0.00 0.02 0.00 99 1015.2
20260507233551 50 0.0 0.0 0.00 0.02 0.00 99 1015.3
20260507232545 50 92 0.0 1.0 0.00 0.02 0.00 99 1015.3
20260507231545 50 0.0 0.0 0.00 0.02 0.00 99 1015.6
20260507230546 50 0.0 0.0 0.00 0.02 0.00 99 1015.8
20260507225547 50 0.0 0.0 0.00 0.02 0.00 99 1015.8
20260507224607 50 100 0.0 1.0 0.00 0.02 0.00 99 1015.9
20260507223547 50 0.0 0.0 0.00 0.02 0.00 99 1015.8
20260507222548 50 0.0 0.0 0.00 0.02 0.00 99 1015.8
20260507221608 51 0.0 0.0 0.00 0.02 0.00 99 1015.7
20260507220549 51 0.0 0.0 0.00 0.02 0.00 99 1015.8
20260507215548 51 0.0 0.0 0.00 0.02 0.02 99 1015.6
20260507214549 51 0.0 0.0 0.00 0.02 0.02 99 1015.5
20260507213550 51 0.0 0.0 0.00 0.02 0.02 99 1015.5
20260507212550 51 0.0 0.0 0.00 0.02 0.02 99 1015.5
20260507211550 51 112 0.0 1.0 0.00 0.02 0.02 99 1015.4
20260507210551 51 114 1.0 2.0 0.00 0.02 0.02 99 1015.5
20260507205551 51 148 0.0 2.0 0.00 0.02 0.02 99 1015.6
20260507204552 51 126 0.0 1.0 0.00 0.02 0.02 97 1015.5
20260507203552 52 0.0 0.0 0.00 0.02 0.02 96 1015.4
20260507202552 52 0.0 0.0 0.00 0.02 0.02 96 1015.2
20260507201553 52 0.0 0.0 0.00 0.02 0.02 96 1015.2
20260507200554 52 0.0 0.0 0.00 0.02 0.02 96 1015.2
20260507195614 52 0.0 0.0 0.00 0.02 0.02 96 1015.1
20260507194556 52 0.0 0.0 0.00 0.02 0.02 96 1015.0
20260507174559 54 164 1.0 6.0 0.00 0.02 0.02 87 1013.9
20260507173601 54 97 1.0 3.0 0.00 0.02 0.02 86 1013.5
20260507172600 55 93 1.0 3.0 0.00 0.03 0.02 86 1013.5
20260507171601 55 133 1.0 3.0 0.00 0.03 0.02 86 1013.5
20260507170621 56 144 2.0 5.0 0.00 0.03 0.02 85 1013.3
20260507165601 57 119 1.0 5.0 0.00 0.03 0.02 83 1013.4
20260507164642 58 141 1.0 3.0 0.00 0.03 0.02 76 1013.2
20260507163626 57 53 1.0 5.0 0.00 0.03 0.02 74 1013.1
20260507162607 58 66 1.0 3.0 0.00 0.03 0.02 74 1013.0
20260507161629 58 49 1.0 5.0 0.00 0.03 0.02 75 1013.0
20260507160640 57 38 2.0 5.0 0.00 0.03 0.02 75 1013.1
20260507155604 58 61 1.0 5.0 0.00 0.03 0.02 74 1012.9
20260507154532 58 33 2.0 5.0 0.00 0.03 0.02 76 1012.9
20260507153546 58 61 1.0 2.0 0.00 0.03 0.02 79 1012.9
20260507152553 57 65 1.0 5.0 0.00 0.03 0.02 81 1012.9
20260507151554 58 131 2.0 5.0 0.00 0.03 0.02 75 1012.8
20260507150534 57 72 0.0 1.0 0.00 0.03 0.02 78 1012.8
20260507145534 58 190 2.0 5.0 0.00 0.03 0.02 75 1012.6
20260507144534 59 24 2.0 6.0 0.00 0.03 0.02 69 1012.7
20260507143535 59 7 2.0 7.0 0.00 0.03 0.02 68 1012.6
20260507142535 58 31 2.0 8.0 0.00 0.03 0.02 70 1012.7
20260507141541 58 10 4.0 8.0 0.00 0.03 0.02 69 1012.6
20260507140536 60 8 3.0 7.0 0.00 0.03 0.02 68 1012.7
20260507135537 59 345 4.0 9.0 0.00 0.03 0.02 66 1012.6
20260507134537 61 349 3.0 7.0 0.00 0.03 0.02 62 1012.6
20260507133537 60 338 2.0 7.0 0.00 0.03 0.02 64 1012.7
20260507132538 60 317 2.0 8.0 0.00 0.03 0.02 64 1012.8
20260507131558 60 354 2.0 7.0 0.00 0.03 0.02 64 1012.8
20260507130539 60 353 2.0 8.0 0.00 0.03 0.02 64 1012.8
20260507125620 62 9 2.0 7.0 0.00 0.03 0.02 62 1012.7
20260507124540 60 5 3.0 9.0 0.00 0.03 0.02 64 1012.6
20260507123540 61 335 3.0 8.0 0.00 0.03 0.02 63 1012.7
20260507122541 62 271 2.0 8.0 0.00 0.03 0.02 61 1012.6
20260507121541 61 303 4.0 11.0 0.00 0.03 0.02 62 1012.7
20260507120541 62 7 3.0 9.0 0.00 0.03 0.02 62 1012.6
20260507115541 61 348 3.0 11.0 0.00 0.03 0.02 63 1012.5
20260507114542 62 267 3.0 13.0 0.00 0.03 0.02 62 1012.7
20260507113542 60 243 3.0 11.0 0.00 0.03 0.02 64 1012.8
20260507112544 59 308 4.0 11.0 0.00 0.03 0.02 66 1012.8
20260507111544 60 265 3.0 11.0 0.00 0.03 0.02 66 1012.6
20260507110544 60 282 4.0 13.0 0.00 0.03 0.02 65 1012.8
20260507105544 60 190 4.0 11.0 0.00 0.03 0.02 65 1012.8
20260507104545 59 266 3.0 8.0 0.00 0.03 0.02 65 1012.8
20260507103545 60 275 3.0 11.0 0.00 0.03 0.02 66 1012.8
20260507102545 58 308 5.0 11.0 0.00 0.03 0.02 68 1012.8
20260507101546 58 271 4.0 9.0 0.00 0.03 0.02 67 1012.9
20260507100547 60 240 4.0 10.0 0.00 0.03 0.02 66 1012.7
20260507095547 60 205 3.0 9.0 0.00 0.03 0.02 67 1012.6
20260507094547 59 238 3.0 9.0 0.00 0.03 0.02 70 1012.6
20260507093547 59 297 4.0 11.0 0.00 0.03 0.02 70 1012.6
20260507092548 59 18 2.0 7.0 0.00 0.03 0.02 72 1012.6
20260507091548 58 250 4.0 9.0 0.00 0.03 0.02 72 1012.6
20260507090610 58 242 2.0 7.0 0.00 0.03 0.02 74 1012.5
20260507085549 57 99 1.0 6.0 0.00 0.03 0.02 77 1012.4
20260507084552 57 179 2.0 9.0 0.00 0.03 0.02 75 1012.2
20260507083550 56 268 2.0 8.0 0.00 0.03 0.02 78 1012.3
20260507082551 55 1 2.0 6.0 0.00 0.03 0.02 83 1012.3
20260507081551 56 160 2.0 6.0 0.00 0.03 0.02 83 1012.1
20260507080551 54 169 1.0 3.0 0.00 0.03 0.02 87 1012.2
20260507075551 53 133 2.0 5.0 0.00 0.03 0.02 90 1012.3
20260507074553 52 169 2.0 3.0 0.00 0.03 0.02 92 1012.3
20260507073552 51 135 1.0 2.0 0.01 0.03 0.02 94 1012.3
20260507072553 50 101 1.0 2.0 0.01 0.03 0.02 95 1012.3
20260507071554 50 112 0.0 2.0 0.01 0.03 0.02 96 1012.0
20260507070554 50 187 1.0 3.0 0.01 0.03 0.02 96 1012.1
20260507065615 49 197 2.0 5.0 0.01 0.03 0.02 96 1012.1
20260507064554 49 182 1.0 5.0 0.01 0.03 0.02 95 1012.0
20260507063615 50 224 2.0 11.0 0.00 0.02 0.01 93 1011.9
20260507062556 50 221 2.0 6.0 0.00 0.02 0.01 92 1011.7
20260507061556 49 178 1.0 6.0 0.00 0.02 0.01 96 1011.7
20260507060556 49 133 0.0 1.0 0.00 0.02 0.01 98 1011.6
20260507055557 49 124 0.0 1.0 0.00 0.02 0.01 99 1011.5
20260507054557 49 148 0.0 2.0 0.00 0.02 0.01 99 1011.4
20260507053558 49 134 0.0 2.0 0.00 0.02 0.01 98 1011.4
20260507052600 48 156 0.0 1.0 0.00 0.02 0.01 99 1011.3
20260507051559 48 104 0.0 1.0 0.00 0.02 0.01 99 1011.1
20260507050559 47 129 0.0 2.0 0.00 0.02 0.01 99 1011.1
20260507045600 48 111 0.0 1.0 0.00 0.02 0.01 99 1010.9
20260507044559 48 0.0 0.0 0.00 0.02 0.01 99 1010.6
20260507043532 47 0.0 1.0 0.00 0.02 0.01 99 1010.6
20260507042533 47 0.0 1.0 0.00 0.02 0.01 99 1010.5
20260507041533 47 0.0 0.0 0.00 0.02 0.01 99 1010.3
20260507040535 47 0.0 0.0 0.00 0.02 0.01 99 1010.3
20260507035553 47 0.0 0.0 0.00 0.02 0.01 99 1010.3
20260507034535 47 0.0 0.0 0.00 0.02 0.01 99 1010.3
20260507033554 47 0.0 0.0 0.00 0.02 0.01 99 1010.4
20260507032535 47 0.0 0.0 0.00 0.02 0.01 99 1010.3
20260507031535 47 121 0.0 1.0 0.00 0.02 0.01 99 1010.4
20260507030536 47 114 0.0 1.0 0.00 0.02 0.01 99 1010.4
20260507025556 47 117 0.0 1.0 0.00 0.02 0.01 99 1010.4
20260507024556 47 112 0.0 2.0 0.00 0.02 0.01 99 1010.2
20260507023538 47 107 0.0 2.0 0.00 0.02 0.01 99 1010.2
20260507022537 47 100 0.0 2.0 0.00 0.02 0.01 99 1010.0
20260507021538 47 160 0.0 2.0 0.00 0.02 0.01 99 1010.0
20260507020538 47 132 0.0 1.0 0.00 0.02 0.01 99 1009.9
20260507015539 47 131 0.0 2.0 0.00 0.02 0.01 98 1009.8
20260507014539 47 160 0.0 2.0 0.00 0.02 0.01 98 1009.8